Flag for Moldova Weather past 2 weeks in Bălți, Moldova

Now
81 °F

Partly sunny.


Feels Like: 80 °F
Forecast: 62 / 85 °F
Wind: 7 mph from Southeast

Location: Baltsi-Leadoveni - The North of Moldova

Current Time: Jul 4, 2015 at 2:56:04 PM

Latest Report: Jul 4, 2015 at 2:30 PM


Visibility: N/A

Pressure: 30.24 "Hg

Humidity: 34%

Dew point: 50 °F

Location of BălțiLocation

Historic Weather in Bălți — Graph

°F

Bălți temperature yesterday

Maximum temperature yesterday: 82 °F (at 3:00 PM)
Minimum temperature yesterday: 59 °F (at 5:00 AM)
Average temperature yesterday: 72 °F

Past Weeks' High & Low Weather Summary

 TemperatureHumidityPressure
High82 °F (Jun 24, 2:00 PM)100% (Jun 22, 6:30 AM)30.33 "Hg (Jun 22, 6:30 AM)
Low52 °F (Jun 21, 5:00 AM)28% (Jun 19, 2:00 PM)29.77 "Hg (Jun 19, 2:00 PM)
Average68 °F57%29.99 "Hg
* Reported Jun 19 1:00 PM — Jul 4 1:00 PM, Bălți, Weather by CustomWeather, © 2015

Note: Actual official high and low records may vary slightly from our data, if they occured in-between our weather recording intervals... More about our weather records

Advertising

Bălți weather history for previous 24 hours

 ConditionsComfort  
Time TempWeatherWind HumidityBarometerVisibility
1:00 PM
Sat, Jul 4
79 °FPartly sunny.7 mph42%30.27 "HgN/A
12:30 PM79 °FPartly sunny.9 mph45%30.27 "HgN/A
12:00 PM77 °FPartly sunny.7 mph47%30.27 "HgN/A
11:30 AM77 °FPartly sunny.9 mph51%30.27 "HgN/A
11:00 AM77 °FScattered clouds.10 mph51%30.27 "HgN/A
10:00 AM75 °FPassing clouds.9 mph54%30.30 "HgN/A
9:30 AM73 °FSunny.7 mph61%30.30 "Hg10 mi
9:00 AM73 °FSunny.6 mph61%30.30 "Hg10 mi
8:00 AM68 °FMild.7 mph73%30.30 "HgN/A
7:00 AM64 °FMild.7 mph78%30.30 "HgN/A
6:00 AM63 °FMild.7 mph77%30.30 "HgN/A
5:00 AM61 °FCool.7 mph77%30.30 "HgN/A
4:00 AM63 °FMild.7 mph73%30.30 "HgN/A
3:30 AM63 °FMild.7 mph73%30.30 "HgN/A
3:00 AM63 °FMild.7 mph73%30.30 "HgN/A
2:00 AM66 °FMild.6 mph68%30.30 "HgN/A
1:00 AM66 °FMild.6 mph68%30.33 "HgN/A
12:00 AM68 °FMild.6 mph64%30.30 "HgN/A
11:30 PM
Fri, Jul 3
70 °FMild.7 mph60%30.30 "HgN/A
11:00 PM70 °FMild.8 mph60%30.30 "HgN/A
10:30 PM70 °FMild.7 mph60%30.30 "HgN/A
10:00 PM72 °FMild.8 mph57%30.30 "HgN/A
9:00 PM75 °FMild.10 mph50%30.30 "HgN/A
8:00 PM79 °FWarm.15 mph42%30.27 "HgN/A
7:00 PM79 °FScattered clouds.16 mph42%30.27 "HgN/A
6:00 PM82 °FScattered clouds.13 mph40%30.27 "HgN/A
5:30 PM81 °FScattered clouds.14 mph39%30.27 "HgN/A
5:00 PM82 °FScattered clouds.13 mph37%30.27 "HgN/A
4:00 PM82 °FPleasantly warm.13 mph37%30.27 "HgN/A
3:30 PM81 °FPleasantly warm.14 mph37%30.27 "HgN/A
3:00 PM82 °FPleasantly warm.13 mph40%30.27 "HgN/A
2:00 PM81 °FWarm.16 mph42%30.27 "HgN/A
Weather by CustomWeather, © 2015

See weather overviewHow to use our weather pages